www.pogodaiklimat.ru

Погода и климат >> Архив погоды >> Австралия >> Moomba Airport


ПОГОДА в Moomba Airport

  • Прогноз погоды в Moomba Airport
  • Монитор погоды в Moomba Airport
  • Климат города

АРХИВ ПОГОДЫ в Moomba Airport

Время (UTC), дата Ветер
(напр.,м/с)
 
Видим.   Явления Облачность Т
(С)
Тd
(С)
f
(%)
Тe
(С)
Тes
(С)
Комфортность P
(гПа)
Po
(гПа)
Тmin
(С)
Tmax
(С)
R
(мм)
R24
(мм)
S
(см)
07 14.10 Ю 6 н/о н/о +28.2 +3.1 20 +26 +26 жарко 1014.3 1009.8
08 14.10 ЮВ 6 н/о н/о +27.8 +2.1 19 +26 +26 жарко 1014.7 1010.2
09 14.10 Ю 6 н/о н/о +26.3 +1.6 20 +25 +25 комфорт 1015.3 1010.8
10 14.10 Ю 6 н/о н/о +24.9 +1.7 22 +24 +24 комфорт 1015.6 1011.1
11 14.10 ЮВ 5 н/о н/о +24.5 +3.2 25 +24 +24 комфорт 1015.9 1011.4
12 14.10 ЮВ 5 н/о н/о +23.5 +4.5 29 +23 +23 комфорт 1016.3 1011.8
13 14.10 ЮВ 5 н/о н/о +22.9 +5.3 32 +23 +23 комфорт 1016.4 1011.9
14 14.10 Ю 5 н/о н/о +20.8 +5.2 36 +22 +22 комфорт 1016.3 1011.8
15 14.10 Ю 5 н/о н/о +19.8 +5.8 40 +20 +20 1015.8 1011.3
16 14.10 Ю 6 н/о н/о +19.6 +5.6 40 +20 +20 1015.1 1010.6
17 14.10 Ю 6 н/о н/о +19.3 +5.7 41 +19 +19 1014.6 1010.1
18 14.10 Ю 6 н/о н/о +18.7 +5.9 43 +19 +19 1014.4 1009.9
19 14.10 Ю 6 н/о н/о +18.5 +5.7 43 +18 +18 1014.5 1010.0
20 14.10 Ю 6 н/о н/о +18.1 +5.7 44 +18 +18 1015.2 1010.7
21 14.10 Ю 5 н/о н/о +18.7 +5.5 42 +19 +19 1016.0 1011.5
22 14.10 ЮВ 6 н/о н/о +21.5 +5.8 36 +22 +22 комфорт 1016.3 1011.8
23 14.10 ЮВ 6 н/о н/о +24.2 +6.5 32 +24 +24 комфорт 1016.4 1011.9
00 15.10 ЮВ 6 н/о н/о +26.4 +6.4 28 +26 +26 жарко 1016.1 1011.6
01 15.10 ЮВ 5 н/о н/о +28.0 +5.0 23 +27 +27 жарко 1015.5 1011.0
02 15.10 ЮВ 5 н/о н/о +29.3 +4.7 21 +28 +28 жарко 1014.8 1010.3
03 15.10 Ю 5 н/о н/о +29.7 +2.9 18 +28 +28 жарко 1013.9 1009.4
04 15.10 В 5 н/о н/о +30.5 +1.0 15 +28 +28 жарко 1013.1 1008.6
05 15.10 В 3 н/о н/о +31.3 +3.4 17 +29 +29 жарко 1012.1 1007.6
06 15.10 Ю 5 н/о н/о +31.4 +3.4 17 +29 +29 жарко 1011.5 1007.1
07 15.10 ЮВ 5 н/о н/о +31.5 +2.7 16 +29 +29 жарко 1011.3 1006.9
08 15.10 ЮВ 5 н/о н/о +31.1 +2.3 16 +29 +29 жарко 1011.4 1007.0
09 15.10 ЮВ 3 н/о н/о +29.3 +0.9 16 +27 +27 жарко 1012.0 1007.5
10 15.10 Ю 4 н/о н/о +27.6 +1.9 19 +26 +26 жарко 1012.5 1008.0
11 15.10 ЮВ 5 н/о н/о +28.5 +1.1 17 +26 +26 жарко 1013.0 1008.5
12 15.10 ЮВ 4 н/о н/о +27.4 +1.8 19 +26 +26 жарко 1013.5 1009.0
13 15.10 ЮВ 5 н/о н/о +25.8 +3.7 24 +25 +25 комфорт 1013.7 1009.2
14 15.10 ЮВ 5 н/о н/о +24.3 +5.1 29 +24 +24 комфорт 1013.5 1009.0
15 15.10 ЮВ 4 н/о н/о +23.4 +7.1 35 +24 +24 комфорт 1013.4 1008.9
16 15.10 ЮВ 4 н/о н/о +22.8 +8.5 40 +24 +24 комфорт 1013.2 1008.7
17 15.10 В 5 н/о н/о +23.5 +9.5 41 +24 +24 комфорт 1013.3 1008.8
18 15.10 В 5 н/о н/о +23.2 +10.3 44 +25 +25 комфорт 1013.4 1008.9
19 15.10 В 5 н/о н/о +22.0 +10.8 49 +24 +24 комфорт 1014.2 1009.7
20 15.10 В 5 н/о н/о +21.0 +10.5 51 +23 +23 комфорт 1015.0 1010.5
21 15.10 В 5 н/о н/о +23.0 +11.7 49 +25 +25 комфорт 1015.7 1011.2
22 15.10 В 8 н/о н/о +25.1 +11.6 43 +27 +27 жарко 1016.3 1011.8
23 15.10 В 9 н/о н/о +26.9 +10.6 36 +28 +28 жарко 1016.7 1012.2
00 16.10 В 8 н/о н/о +28.8 +10.9 33 +29 +29 жарко 1016.9 1012.4
01 16.10 В 9 н/о н/о +29.8 +9.9 29 +30 +30 жарко 1016.1 1011.6
02 16.10 В 8 н/о н/о +30.6 +9.5 27 +30 +30 жарко 1015.2 1010.7
03 16.10 В 9 н/о н/о +31.7 +8.7 24 +31 +31 жарко 1014.4 1009.9
04 16.10 В 8 н/о н/о +33.0 +9.7 24 +32 +32 жарко 1013.4 1008.9
05 16.10 В 7 н/о н/о +30.9 +6.7 22 +29 +29 жарко 1012.6 1008.1
06 16.10 В 8 н/о н/о +30.8 +8.5 25 +30 +30 жарко 1012.3 1007.8
07 16.10 В 7 н/о н/о +31.8 +8.7 24 +31 +31 жарко 1012.0 1007.5
08 16.10 В 9 н/о н/о +30.6 +8.3 25 +30 +30 жарко 1012.5 1008.0
09 16.10 В 7 н/о н/о +28.8 +9.0 29 +29 +29 жарко 1013.2 1008.7
10 16.10 В 6 н/о н/о +27.7 +8.6 30 +28 +28 жарко 1013.9 1009.4
11 16.10 В 6 н/о н/о +26.7 +10.0 35 +27 +27 жарко 1014.6 1010.1
12 16.10 В 6 н/о н/о +25.8 +10.0 37 +27 +27 жарко 1015.4 1010.9
13 16.10 В 5 н/о н/о +24.8 +9.9 39 +26 +26 жарко 1015.4 1010.9
14 16.10 В 6 н/о н/о +24.3 +9.1 38 +25 +25 комфорт 1015.3 1010.8
15 16.10 В 6 н/о н/о +23.6 +8.8 39 +24 +24 комфорт 1014.9 1010.4
16 16.10 В 6 н/о н/о +22.8 +9.6 43 +24 +24 комфорт 1014.5 1010.0
17 16.10 В 6 н/о н/о +22.5 +10.9 48 +25 +25 комфорт 1014.3 1009.8
18 16.10 В 6 н/о н/о +21.8 +10.6 49 +24 +24 комфорт 1014.3 1009.8
19 16.10 В 5 н/о н/о +20.8 +10.6 52 +23 +23 комфорт 1014.4 1009.9
20 16.10 В 5 н/о н/о +20.4 +11.9 58 +22 +22 комфорт 1014.9 1010.4
21 16.10 В 6 н/о н/о +22.0 +13.4 58 +25 +25 комфорт 1015.7 1011.2
22 16.10 В 8 н/о н/о +23.7 +13.8 54 +26 +26 жарко 1016.0 1011.5
23 16.10 В 8 н/о н/о +25.7 +14.2 49 +28 +28 жарко 1016.2 1011.7
00 17.10 В 8 н/о н/о +27.0 +14.4 46 +29 +29 жарко 1015.8 1011.3
01 17.10 СВ 6 н/о н/о +28.3 +14.2 42 +30 +30 жарко 1015.3 1010.8
02 17.10 СВ 6 н/о н/о +28.9 +13.6 39 +31 +31 жарко 1014.4 1009.9
03 17.10 В 6 н/о н/о +29.7 +13.5 37 +31 +31 жарко 1013.5 1009.0
04 17.10 В 6 н/о н/о +31.2 +13.0 33 +32 +32 жарко 1012.6 1008.1
05 17.10 СВ 7 н/о н/о +31.1 +12.5 32 +32 +32 жарко 1011.5 1007.1
06 17.10 В 7 н/о н/о +31.5 +11.8 30 +32 +32 жарко 1010.9 1006.5
07 17.10 СВ 7 н/о н/о +31.6 +12.4 31 +32 +32 жарко 1011.1 1006.7
08 17.10 В 5 н/о н/о +31.3 +11.7 30 +32 +32 жарко 1011.2 1006.8
09 17.10 В 5 н/о н/о +30.0 +11.5 32 +31 +31 жарко 1011.8 1007.3
10 17.10 В 5 н/о н/о +28.9 +11.9 35 +30 +30 жарко 1012.7 1008.2
11 17.10 В 6 н/о н/о +28.1 +12.5 38 +29 +29 жарко 1013.7 1009.2
12 17.10 В 6 н/о н/о +27.5 +12.3 39 +29 +29 жарко 1014.2 1009.7
13 17.10 В 7 н/о н/о +26.9 +12.5 41 +28 +28 жарко 1014.6 1010.1
14 17.10 В 8 н/о н/о +26.0 +13.2 45 +28 +28 жарко 1014.7 1010.2
15 17.10 В 7 н/о н/о +24.9 +13.8 50 +27 +27 жарко 1014.6 1010.1
16 17.10 СВ 5 н/о н/о +23.7 +13.8 54 +26 +26 жарко 1014.3 1009.8
17 17.10 В 7 н/о н/о +23.6 +14.0 55 +26 +26 жарко 1014.0 1009.5
18 17.10 В 7 н/о н/о +22.8 +14.1 58 +26 +26 жарко 1013.9 1009.4
19 17.10 СВ 7 н/о н/о +22.2 +14.6 62 +26 +26 душно 1014.3 1009.8
20 17.10 СВ 6 н/о н/о +21.6 +14.7 65 +25 +25 комфорт 1014.8 1010.3
21 17.10 СВ 6 н/о н/о +22.7 +15.0 62 +27 +27 душно 1015.5 1011.0
22 17.10 СВ 8 н/о н/о +24.2 +15.4 58 +27 +27 жарко 1015.8 1011.3
23 17.10 СВ 7 н/о н/о +25.6 +15.3 53 +29 +29 душно 1016.2 1011.7
00 18.10 СВ 6 н/о н/о +27.2 +15.2 48 +30 +30 душно 1015.6 1011.1
01 18.10 СВ 6 н/о н/о +28.4 +15.0 44 +31 +31 душно 1015.0 1010.5
02 18.10 В 5 н/о н/о +29.8 +14.7 40 +32 +32 душно 1014.1 1009.6
03 18.10 СВ 5 н/о н/о +31.0 +14.6 37 +33 +33 душно 1013.5 1009.0
04 18.10 СВ 6 н/о н/о +31.5 +13.7 34 +33 +33 жарко 1012.5 1008.0
05 18.10 С 4 н/о н/о +31.9 +13.6 33 +33 +33 жарко 1011.8 1007.3
06 18.10 СВ 5 н/о н/о +32.6 +12.8 30 +33 +33 жарко 1011.2 1006.8
07 18.10 В 5 н/о н/о +33.6 +13.1 29 +34 +34 очень
жарко
1011.2 1006.8
08 18.10 СВ 4 н/о н/о +32.8 +12.9 30 +33 +33 жарко 1011.7 1007.2
09 18.10 СВ 3 н/о н/о +31.7 +13.0 32 +33 +33 жарко 1012.4 1007.9
10 18.10 В 3 н/о н/о +29.5 +12.4 35 +31 +31 жарко 1012.9 1008.4
11 18.10 В 3 н/о н/о +29.1 +12.9 37 +30 +30 жарко 1013.6 1009.1
12 18.10 В 4 н/о н/о +27.3 +12.5 40 +29 +29 жарко 1014.3 1009.8
13 18.10 В 4 н/о н/о +26.9 +13.3 43 +29 +29 жарко 1014.4 1009.9
14 18.10 В 4 н/о н/о +26.4 +13.9 46 +29 +29 жарко 1014.2 1009.7
15 18.10 В 3 н/о н/о +25.4 +14.2 50 +28 +28 жарко 1013.9 1009.4
16 18.10 В 4 н/о н/о +25.9 +15.3 52 +29 +29 душно 1013.5 1009.0
17 18.10 В 5 н/о н/о +26.2 +15.9 53 +29 +29 жарко 1013.3 1008.8
18 18.10 В 5 н/о н/о +25.9 +16.7 57 +30 +30 душно 1013.4 1008.9
19 18.10 В 4 н/о н/о +25.4 +17.3 61 +29 +29 душно 1014.1 1009.6
20 18.10 В 3 н/о н/о +24.5 +18.0 67 +29 +29 душно 1014.8 1010.3
21 18.10 В 5 н/о н/о +26.7 +18.8 62 +32 +32 очень
душно
1015.8 1011.3
22 18.10 СВ 7 н/о н/о +28.2 +19.2 58 +34 +34 очень
душно
1016.4 1011.9
23 18.10 СВ 7 н/о н/о +30.2 +19.6 53 +36 +36 очень
душно
1016.7 1012.2
00 19.10 СВ 5 н/о н/о +31.4 +19.4 49 +37 +37 очень
душно
1016.7 1012.2
01 19.10 СВ 3 н/о н/о +32.3 +18.5 44 +37 +37 очень
душно
1016.4 1011.9
02 19.10 ЮВ 3 н/о н/о +34.1 +17.3 37 +38 +38 очень
душно
1015.7 1011.2
03 19.10 ЮВ 3 н/о н/о +33.6 +16.0 35 +36 +36 очень
душно
1015.1 1010.6
04 19.10 С 2 н/о н/о +35.6 +15.9 31 +38 +38 очень
душно
1014.3 1009.8
05 19.10 В 3 н/о н/о +35.3 +14.6 29 +37 +37 очень
душно
1013.6 1009.1
06 19.10 Ю 3 н/о н/о +35.9 +14.5 28 +37 +37 душно 1013.0 1008.5
07 19.10 Ю 3 н/о н/о +35.8 +14.4 28 +37 +37 душно 1012.9 1008.4
08 19.10 Ю 3 н/о н/о +35.6 +14.3 28 +37 +37 душно 1013.3 1008.8
09 19.10 В 7 н/о н/о +32.8 +16.2 37 +36 +36 очень
душно
1014.2 1009.7
10 19.10 Ю 11 н/о н/о +29.2 +16.4 46 +33 +33 очень
душно
1016.1 1011.6
11 19.10 ЮВ 7 н/о н/о +27.0 +18.0 58 +32 +32 очень
душно
1017.6 1013.1
12 19.10 ЮВ 9 н/о н/о +27.4 +18.4 58 +32 +32 очень
душно
1018.3 1013.8
13 19.10 ЮВ 8 н/о н/о +26.3 +18.7 63 +31 +31 душно 1019.2 1014.7
14 19.10 ЮВ 9 н/о н/о +24.9 +17.4 63 +29 +29 душно 1019.5 1015.0
15 19.10 ЮВ 7 н/о н/о +24.1 +16.9 64 +28 +28 душно 1019.4 1014.9
16 19.10 ЮВ 7 н/о н/о +24.1 +16.9 64 +28 +28 душно 1018.8 1014.3
17 19.10 Ю 7 н/о н/о +23.7 +17.2 67 +28 +28 душно 1018.8 1014.3
18 19.10 Ю 5 н/о н/о +23.3 +17.7 71 +29 +29 душно 1019.3 1014.8
19 19.10 Ю 8 н/о н/о +21.8 +14.2 62 +25 +25 комфорт 1019.7 1015.2
20 19.10 Ю 8 н/о н/о +20.5 +13.5 64 +22 +22 комфорт 1020.7 1016.2
21 19.10 Ю 11 н/о н/о +20.7 +12.7 60 +22 +22 комфорт 1021.4 1016.9
22 19.10 Ю 11 н/о н/о +21.2 +11.8 55 +23 +23 комфорт 1022.4 1017.9
23 19.10 ЮВ 11 н/о н/о +21.7 +10.2 48 +23 +23 комфорт 1022.9 1018.4
00 20.10 Ю 10 н/о н/о +23.2 +8.9 40 +25 +25 комфорт 1023.4 1018.9
01 20.10 ЮВ 9 н/о н/о +24.3 +8.3 36 +25 +25 комфорт 1023.2 1018.7
02 20.10 ЮВ 8 н/о н/о +25.2 +7.8 33 +25 +25 комфорт 1022.5 1018.0
03 20.10 ЮВ 8 н/о н/о +27.0 +7.5 29 +27 +27 жарко 1021.7 1017.2
04 20.10 Ю 8 н/о н/о +27.8 +8.1 29 +28 +28 жарко 1020.9 1016.4
05 20.10 ЮВ 8 н/о н/о +28.5 +8.2 28 +28 +28 жарко 1020.1 1015.6
06 20.10 Ю 7 н/о н/о +28.8 +8.5 28 +28 +28 жарко 1019.6 1015.1
07 20.10 Ю 7 н/о н/о +28.3 +7.5 27 +28 +28 жарко 1019.7 1015.2
08 20.10 Ю 6 н/о н/о +27.7 +6.5 26 +27 +27 жарко 1019.8 1015.3
09 20.10 Ю 7 н/о н/о +26.5 +3.7 23 +25 +25 комфорт 1020.3 1015.8
10 20.10 Ю 6 н/о н/о +25.0 +0.5 20 +24 +24 комфорт 1021.0 1016.5
11 20.10 Ю 5 н/о н/о +23.3 -0.9 20 +22 +22 комфорт 1021.5 1017.0
12 20.10 Ю 5 н/о н/о +22.2 -1.1 21 +21 +21 комфорт 1022.0 1017.5
13 20.10 Ю 6 н/о н/о +21.2 -1.3 22 +21 +21 комфорт 1022.2 1017.7
14 20.10 Ю 6 н/о н/о +20.5 +0.4 26 +20 +20 1022.3 1017.8
15 20.10 Ю 6 н/о н/о +20.0 +1.4 29 +20 +20 1022.0 1017.5
16 20.10 Ю 7 н/о н/о +19.3 +1.3 30 +19 +19 1021.7 1017.2
17 20.10 Ю 7 н/о н/о +18.7 +1.2 31 +18 +18 1021.6 1017.1
18 20.10 Ю 7 н/о н/о +17.8 +0.9 32 +17 +17 1021.5 1017.0
19 20.10 Ю 6 н/о н/о +16.9 -0.3 31 +16 +16 1021.9 1017.4
20 20.10 Ю 5 н/о н/о +15.8 -0.8 32 +15 +15 1022.5 1018.0
21 20.10 Ю 6 н/о н/о +16.8 -0.9 30 +16 +16 1023.0 1018.5
22 20.10 ЮВ 7 н/о н/о +18.9 -0.5 27 +18 +18 1023.2 1018.7
23 20.10 ЮВ 8 н/о н/о +21.1 -0.2 24 +21 +21 комфорт 1023.3 1018.8
00 21.10 ЮВ 7 н/о н/о +22.1 0.0 23 +21 +21 комфорт 1022.9 1018.4
01 21.10 ЮВ 6 н/о н/о +24.2 +0.5 21 +23 +23 комфорт 1022.4 1017.9
02 21.10 Ю 6 н/о н/о +24.2 -0.9 19 +23 +23 комфорт 1021.6 1017.1
03 21.10 Ю 6 н/о н/о +25.6 -0.5 18 +24 +24 комфорт 1020.8 1016.3
04 21.10 Ю 6 н/о н/о +26.3 -1.5 16 +24 +24 комфорт 1019.8 1015.3
05 21.10 Ю 7 н/о н/о +27.2 -1.7 15 +25 +25 комфорт 1018.9 1014.4
06 21.10 Ю 7 н/о н/о +27.0 -2.7 14 +24 +24 комфорт 1018.3 1013.8
07 21.10 Ю 8 н/о н/о +26.9 -1.9 15 +25 +25 комфорт 1018.0 1013.5

 

Местоположение метеостанции Moomba Airport (Южная Австралия, Австралия): широта -28.10 долгота 140.20 высота над уровнем моря 38 м.

В архиве по умолчанию представлена погода в Moomba Airport за последнюю неделю. Архивные данные за месяц целиком и за предыдущие месяцы, начиная с января 2011 года, Вы можете получить, выбрав интересующий диапазон дат из раскрывающегося списка и нажав кнопку "Ввод!".

Внимание! Время в таблицах - всемирное. Для получения местного времени необходимо прибавить поправку, которая в Moomba Airport равна 9.5 ч.

Смотрите также архив погоды в соседних городах и на ближайших метеорологических станциях:

Погода в Ballera Gas Field (Квинсленд, Австралия) (176 км)
Погода в Tibooburra Airport (Новый Южный Уэльс, Австралия) (235 км)
Погода в Birdsville Airport (Квинсленд, Австралия) (259 км)
Погода в Marree Aero (Южная Австралия, Австралия) (271 км)
Погода в Leigh Creek Airport (Южная Австралия, Австралия) (327 км)
Погода в Thargomindah Airport (Квинсленд, Австралия) (355 км)
Погода в Fowlers Gap Aws (Новый Южный Уэльс, Австралия) (362 км)
Погода в White Cliffs Aws (Новый Южный Уэльс, Австралия) (413 км)
Погода в Olympic Dam Aerodrome (Южная Австралия, Австралия) (417 км)
Погода в Broken Hill Airport (Новый Южный Уэльс, Австралия) (450 км)

Пояснения к столбцам:

Ветер - указаны скорость ветра в м/с - средняя за 10 мин, порывы в срок и между сроками (в фигурных скобках) и направление, откуда дует ветер: С - северный, СВ - северо-восточный, В - восточный, ЮВ - юго-восточный, Ю - южный, ЮЗ - юго-западный, З - западный, СЗ - северо-западный.
Видимость - горизонтальная дальность видимости в метрах или километрах. При видимости от 1 до 10 км при отсутствии осадков обычно наблюдается дымка, при ухудшении видимости до 1 км и менее - туман. В сухую погоду видимость может ухудшаться дымом, пылью или мглою.
Явления - указаны атмосферные явления, наблюдавшиеся в срок или в последний час перед сроком; фигурными скобками обозначены явления, наблюдавшиеся между сроками (за 1-3 часа до срока); квадратными скобками обозначены град или гололедные отложения с указанием их диаметра в мм.
Облачность - указаны через наклонную черту общая и нижняя облачность в баллах и высота нижней границы облаков в метрах; квадратными скобками обозначены формы облаков: Ci - перистые, Cs - перисто-слоистые, Cc - перисто-кучевые, Ac - высококучевые, As - высокослоистые, Sc - слоисто-кучевые, Ns - слоисто-дождевые, Cu - кучевые, Cb - кучево-дождевые. Подробнее классификацию облаков см. в Атласе облаков (PDF).
T - Температура воздуха - температура, измеренная на высоте 2 м над землей.
Td - Температура точки росы - температура, при понижении до которой содержащийся в воздухе водяной пар достигнет насыщения.
f - Относительная влажность воздуха - влажноcть воздуха, измеренная на высоте 2 м над землей.
Te - Эффективная температура - температура, которую ощущает одетый по сезону человек в тени. Характеристика душности погоды. При расчете учитывается влияние влажности воздуха и скорости ветра на теплоощущения человека.
Tes - Эффективная температура на солнце - температура, которую ощущает человек, с поправкой на солнечный нагрев. Характеристика знойности погоды. Зависит от высоты солнца над горизонтом, облачности и скорости ветра. Ночью, в пасмурную погоду, а также при ветре 12 м/с и более поправка равна нулю.
P - Атмосферное давление - приведенное к уровню моря атмосферное давление.
Po - Атмосферное давление - измеренное на уровне метеостанции атмосферное давление.
Tmin - Минимальная температура - минимум температуры воздуха на высоте 2 м над землей.
Tmax - Максимальная температура - максимум температуры воздуха на высоте 2 м над землей.
R - Количество осадков - Количество выпавших осадков за период времени, мм. При наведении курсора мыши на число - период времени, за который выпало указанное количество осадков.
R24 - Количество осадков - Количество выпавших осадков за 24 часа, мм.
S - Снежный покров - Высота снежного покрова, см. При наведении курсора мыши на число - состояние снежного покрова и степень покрытия местности в баллах.